Chillicothe, MO

1:15 AM CST on November 17, 2019 (GMT -0600)
Chillicothe

Weather History for KCDJ - September, 2019

Change the Weather History Date:

Friday, September 13, 2019

  Actual Average (WUND) Record (WUND)
Temperature  
Mean Temperature 70 °F -  
Max Temperature 77 °F - - (-1)
Min Temperature 62 °F - - (-1)
Cooling Degree Days 4    
Growing Degree Days 20 (Base 50)    
Moisture  
Dew Point 59 °F    
Average Humidity 75    
Maximum Humidity 97    
Minimum Humidity 48    
Precipitation  
Precipitation 0.00 in - - ()
Sea Level Pressure  
Sea Level Pressure 30.14 in    
Wind  
Wind Speed 3 mph (WNW)    
Max Wind Speed 12 mph    
Max Gust Speed 21 mph    
Averages and records for this station are not official NWS values.
T = Trace of Precipitation, MM = Missing Value Source: NWS Daily Summary

Daily Weather History Graph

Daily Weather History Graph

Search for Another Location

Airport or City:

Astronomy

Sep. 13, 2019 Rise Set
Actual Time 6:53 AM CDT 7:26 PM CDT
Civil Twilight 6:26 AM CDT 7:53 PM CDT
Nautical Twilight 5:54 AM CDT 8:25 PM CDT
Astronomical Twilight 5:21 AM CDT 8:58 PM CDT
Moon 7:40 PM CDT (9/13) 6:10 AM CDT (9/13)
Length of Visible Light 13h 27m
Length of Day
12h 33m
Full, 100% of the Moon is Illuminated
Sep 13
Full
Sep 13
Full
Sep 21
Last Quarter
Sep 28
New
Oct 5
First Quarter

Hourly Weather History & Observations

Time (CDT) Temp. Dew Point Humidity Pressure Visibility Wind Dir Wind Speed Gust Speed Precip Events Conditions
12:52 AM 71.1 °F 70.0 °F 96% 30.03 in - Calm Calm - N/A   Unknown
1:52 AM 70.0 °F 69.1 °F 97% 30.03 in - WSW 3.5 mph - N/A   Unknown
2:52 AM 69.1 °F 66.9 °F 93% 30.03 in - Variable 4.6 mph - N/A   Unknown
3:52 AM 68.0 °F 64.0 °F 87% 30.04 in - Variable 3.5 mph - N/A   Unknown
4:52 AM 66.0 °F 59.0 °F 78% 30.07 in - Variable 3.5 mph - N/A   Unknown
5:52 AM 64.0 °F 57.9 °F 80% 30.08 in - WNW 6.9 mph - N/A   Unknown
6:52 AM 63.0 °F 55.9 °F 78% 30.12 in - Variable 4.6 mph - N/A   Unknown
7:52 AM 63.0 °F 57.0 °F 81% 30.15 in - Variable 3.5 mph - N/A   Unknown
8:52 AM 64.0 °F 55.9 °F 75% 30.17 in - Variable 4.6 mph - N/A   Unknown
9:52 AM 66.0 °F 55.0 °F 68% 30.19 in - WNW 9.2 mph - N/A   Unknown
10:52 AM 66.9 °F 55.9 °F 68% 30.20 in - Variable 3.5 mph - N/A   Unknown
11:52 AM 69.1 °F 55.9 °F 63% 30.19 in - Variable 3.5 mph - N/A   Unknown
12:52 PM 73.0 °F 55.0 °F 53% 30.19 in - Variable 5.8 mph 19.6 mph N/A   Unknown
1:52 PM 73.9 °F 55.9 °F 53% 30.18 in - West 11.5 mph 20.7 mph N/A   Unknown
2:52 PM 75.9 °F 55.9 °F 50% 30.17 in - Variable 3.5 mph - N/A   Unknown
3:52 PM 77.0 °F 57.0 °F 50% 30.16 in - North - - N/A   Unknown
4:52 PM 77.0 °F 55.9 °F 48% 30.16 in - NW 4.6 mph - N/A   Unknown
5:52 PM 75.9 °F 57.0 °F 52% 30.15 in - Calm Calm - N/A   Unknown
6:52 PM 72.0 °F 60.1 °F 66% 30.16 in - Calm Calm - N/A   Unknown
7:52 PM 66.0 °F 61.0 °F 84% 30.17 in - Calm Calm - N/A   Unknown
8:52 PM 63.0 °F 61.0 °F 93% 30.19 in - Calm Calm - N/A   Unknown
9:52 PM 63.0 °F 60.1 °F 90% 30.19 in - Calm Calm - N/A   Unknown
10:52 PM 62.1 °F 60.1 °F 93% 30.20 in - Calm Calm - N/A   Unknown
11:52 PM 62.1 °F 60.1 °F 93% 30.20 in - Calm Calm - N/A   Unknown